Weather History for KHAF - September, 2013

Change the Weather History Date:

Thursday, September 26, 2013

  Actual Average Record
Temperature  
Mean Temperature 54 °F -  
Max Temperature 64 °F 67 °F 68 °F (2014)
Min Temperature 44 °F 52 °F 44 °F (2013)
Degree Days  
Heating Degree Days 11    
Growing Degree Days 4 (Base 50)    
Moisture  
Dew Point 46 °F    
Average Humidity 73    
Maximum Humidity 93    
Minimum Humidity 49    
Precipitation  
Precipitation 0.00 in - - ()
Sea Level Pressure  
Sea Level Pressure 29.93 in    
Wind  
Wind Speed 10 mph (NNW)    
Max Wind Speed 20 mph    
Max Gust Speed 24 mph    
Visibility 8 miles    
Events      
Averages and records for this station are not official NWS values.
T = Trace of Precipitation, MM = Missing Value Source: NWS Daily Summary

Daily Weather History Graph

Daily Weather History Graph

Search for Another Location

Airport or City:

Trip Planner

Search our weather history database for the weather conditions in past years. The results will help you decide how hot, cold, wet, or windy it might be!

Date:

Astronomy

Sep. 26, 2013 Rise Set
Actual Time 7:01 AM PDT 7:00 PM PDT
Civil Twilight 6:35 AM PDT 7:26 PM PDT
Nautical Twilight 6:05 AM PDT 7:56 PM PDT
Astronomical Twilight 5:34 AM PDT 8:27 PM PDT
Moon No Moon Rise 1:51 PM PDT (9/26)
Length of Visible Light 12h 50m
Length of Day
11h 58m
Waning Gibbous, 53% of the Moon is Illuminated
Sep 26
Waning Gibbous
Sep 26
Last Quarter
Oct 4
New
Oct 11
First Quarter
Oct 18
Full

Hourly Weather History & Observations

Time (PDT) Temp. Windchill Dew Point Humidity Pressure Visibility Wind Dir Wind Speed Gust Speed Precip Events Conditions
12:15 AM 53.6 °F - 48.2 °F 82% 29.87 in 7.0 mi North 13.8 mph 21.9 mph N/A   Unknown
12:35 AM 53.6 °F - 48.2 °F 82% 29.87 in 6.0 mi North 13.8 mph 20.7 mph N/A   Haze
12:55 AM 53.6 °F - 48.2 °F 82% 29.87 in 7.0 mi NNE 12.7 mph 16.1 mph N/A   Unknown
1:15 AM 53.6 °F - 48.2 °F 82% 29.87 in 8.0 mi North 9.2 mph - N/A   Unknown
1:35 AM 53.6 °F - 46.4 °F 77% 29.87 in 8.0 mi North 8.1 mph - N/A   Unknown
1:55 AM 53.6 °F - 46.4 °F 77% 29.87 in 8.0 mi North 10.4 mph - N/A   Unknown
2:15 AM 53.6 °F - 46.4 °F 77% 29.87 in 9.0 mi North 12.7 mph 18.4 mph N/A   Unknown
2:35 AM 53.6 °F - 46.4 °F 77% 29.87 in 9.0 mi North 8.1 mph - N/A   Unknown
2:55 AM 53.6 °F - 46.4 °F 77% 29.87 in 8.0 mi North 6.9 mph - N/A   Unknown
3:15 AM 53.6 °F - 46.4 °F 77% 29.87 in 9.0 mi North 6.9 mph - N/A   Unknown
3:35 AM 53.6 °F - 46.4 °F 77% 29.88 in 9.0 mi North 8.1 mph - N/A   Unknown
3:55 AM 53.6 °F - 46.4 °F 77% 29.87 in 9.0 mi North 10.4 mph - N/A   Unknown
4:15 AM 53.6 °F - 46.4 °F 77% 29.87 in 8.0 mi North 8.1 mph - N/A   Unknown
4:35 AM 53.6 °F - 46.4 °F 77% 29.88 in 8.0 mi North 10.4 mph - N/A   Unknown
4:55 AM 53.6 °F - 44.6 °F 72% 29.88 in 10.0 mi North 9.2 mph - N/A   Unknown
5:15 AM 53.6 °F - 44.6 °F 72% 29.88 in 10.0 mi North 8.1 mph - N/A   Unknown
5:35 AM 53.6 °F - 42.8 °F 67% 29.88 in 10.0 mi North 5.8 mph - N/A   Unknown
5:55 AM 50.0 °F - 44.6 °F 82% 29.88 in 8.0 mi North 6.9 mph - N/A   Unknown
6:15 AM 48.2 °F - 42.8 °F 82% 29.89 in 8.0 mi NW 5.8 mph - N/A   Unknown
6:35 AM 50.0 °F - 42.8 °F 76% 29.90 in 7.0 mi NNW 6.9 mph - N/A   Unknown
6:55 AM 50.0 °F - 44.6 °F 82% 29.91 in 7.0 mi North 5.8 mph - N/A   Unknown
7:15 AM 53.6 °F - 46.4 °F 77% 29.91 in 8.0 mi North 5.8 mph - N/A   Unknown
7:35 AM 51.8 °F - 46.4 °F 82% 29.92 in 5.0 mi NNW 5.8 mph - N/A   Haze
7:55 AM 53.6 °F - 46.4 °F 77% 29.92 in 6.0 mi NNW 6.9 mph - N/A   Haze
8:15 AM 55.4 °F - 46.4 °F 72% 29.93 in 7.0 mi North 5.8 mph - N/A   Clear
8:35 AM 55.4 °F - 46.4 °F 72% 29.94 in 6.0 mi NNE 8.1 mph - N/A   Haze
8:55 AM 57.2 °F - 44.6 °F 63% 29.94 in 8.0 mi NNW 9.2 mph - N/A   Clear
9:15 AM - - - N/A% 29.94 in 8.0 mi NNW 12.7 mph - N/A   Unknown
9:35 AM 57.2 °F - 44.6 °F 63% 29.95 in 9.0 mi NNW 9.2 mph - N/A   Clear
9:55 AM 59.0 °F - 44.6 °F 59% 29.96 in 8.0 mi NNW 9.2 mph - N/A   Clear
10:15 AM - - - N/A% 29.95 in - NNW 10.4 mph - N/A   Unknown
10:35 AM 60.8 °F - 46.4 °F 59% 29.96 in 7.0 mi NW 6.9 mph - N/A   Clear
10:55 AM 64.4 °F - 44.6 °F 49% 29.95 in 9.0 mi NW 9.2 mph - N/A   Unknown
11:15 AM 59.0 °F - 48.2 °F 67% 29.95 in 9.0 mi NNW 12.7 mph - N/A   Clear
11:35 AM 59.0 °F - 48.2 °F 67% 29.95 in 9.0 mi NNW 15.0 mph - N/A   Clear
11:55 AM 59.0 °F - 48.2 °F 67% 29.95 in 9.0 mi NNW 15.0 mph - N/A   Clear
12:15 PM 59.0 °F - 48.2 °F 67% 29.95 in 8.0 mi NNW 12.7 mph - N/A   Clear
12:35 PM 60.8 °F - 48.2 °F 63% 29.95 in 9.0 mi NW 18.4 mph - N/A   Clear
12:55 PM 59.0 °F - 48.2 °F 67% 29.96 in 8.0 mi NNW 19.6 mph 24.2 mph N/A   Clear
1:15 PM 60.8 °F - 46.4 °F 59% 29.96 in 10.0 mi NNW 13.8 mph 18.4 mph N/A   Clear
1:35 PM 62.6 °F - 46.4 °F 55% 29.95 in 9.0 mi NNW 12.7 mph 18.4 mph N/A   Clear
1:55 PM 62.6 °F - 44.6 °F 52% 29.94 in 10.0 mi NNW 17.3 mph - N/A   Clear
2:15 PM 59.0 °F - 46.4 °F 63% 29.94 in 9.0 mi NNW 16.1 mph - N/A   Clear
2:35 PM 60.8 °F - 48.2 °F 63% 29.94 in 9.0 mi NNW 15.0 mph - N/A   Clear
2:55 PM 59.0 °F - 48.2 °F 67% 29.94 in 9.0 mi NNW 17.3 mph - N/A   Clear
3:15 PM 59.0 °F - 48.2 °F 67% 29.94 in 8.0 mi NNW 16.1 mph - N/A   Clear
3:35 PM 59.0 °F - 48.2 °F 67% 29.94 in 8.0 mi NNW 13.8 mph 20.7 mph N/A   Clear
3:55 PM 60.8 °F - 48.2 °F 63% 29.93 in 9.0 mi North 15.0 mph 20.7 mph N/A   Clear
4:15 PM 60.8 °F - 48.2 °F 63% 29.94 in 7.0 mi NNW 13.8 mph 21.9 mph N/A   Clear
4:35 PM 60.8 °F - 48.2 °F 63% 29.94 in 7.0 mi NNW 13.8 mph 20.7 mph N/A   Clear
4:55 PM 59.0 °F - 48.2 °F 67% 29.94 in 7.0 mi North 13.8 mph 23.0 mph N/A   Clear
5:15 PM 59.0 °F - 48.2 °F 67% 29.93 in 6.0 mi NNW 16.1 mph 23.0 mph N/A   Haze
5:35 PM 59.0 °F - 48.2 °F 67% 29.93 in 5.0 mi North 16.1 mph 23.0 mph N/A   Haze
5:55 PM 59.0 °F - 48.2 °F 67% 29.94 in 5.0 mi North 12.7 mph 19.6 mph N/A   Haze
6:15 PM 57.2 °F - 48.2 °F 72% 29.94 in 5.0 mi NNW 16.1 mph 20.7 mph N/A   Haze
6:35 PM 57.2 °F - 48.2 °F 72% 29.94 in 5.0 mi NNW 16.1 mph 23.0 mph N/A   Haze
6:55 PM 57.2 °F - 48.2 °F 72% 29.94 in 5.0 mi North 17.3 mph 24.2 mph N/A   Haze
7:15 PM 55.4 °F - 48.2 °F 77% 29.94 in 5.0 mi NNW 16.1 mph 21.9 mph N/A   Haze
7:35 PM 55.4 °F - 48.2 °F 77% 29.95 in 6.0 mi NNW 13.8 mph 17.3 mph N/A   Haze
7:55 PM 55.4 °F - 48.2 °F 77% 29.95 in 5.0 mi North 10.4 mph - N/A   Haze
8:15 PM 55.4 °F - 48.2 °F 77% 29.97 in 6.0 mi Calm Calm - N/A   Haze
8:35 PM 55.4 °F - 48.2 °F 77% 29.97 in 7.0 mi Calm Calm - N/A   Unknown
8:55 PM 53.6 °F - 46.4 °F 77% 29.98 in 7.0 mi Calm Calm - N/A   Unknown
9:15 PM 50.0 °F - 44.6 °F 82% 29.99 in 7.0 mi NE 3.5 mph - N/A   Unknown
9:35 PM 48.2 °F - 44.6 °F 87% 30.00 in 7.0 mi NNE 4.6 mph - N/A   Unknown
9:55 PM 48.2 °F - 44.6 °F 87% 30.00 in 8.0 mi Calm Calm - N/A   Unknown
10:15 PM 46.4 °F - 42.8 °F 87% 30.00 in 7.0 mi Calm Calm - N/A   Unknown
10:35 PM 48.2 °F - 44.6 °F 87% 30.00 in 8.0 mi Calm Calm - N/A   Unknown
10:55 PM 46.4 °F - 42.8 °F 87% 30.00 in 8.0 mi Calm Calm - N/A   Unknown
11:15 PM 44.6 °F - 41.0 °F 87% 30.00 in 7.0 mi Calm Calm - N/A   Unknown
11:35 PM 44.6 °F 43.1 °F 42.8 °F 93% 30.00 in 7.0 mi NE 3.5 mph - N/A   Unknown
11:55 PM 44.6 °F - 41.0 °F 87% 30.00 in 7.0 mi Calm Calm - N/A   Unknown